Weather History for Athens, OH

Change the Weather History Date:

Tuesday, January 1, 2013

  Actual Average (KPKB) Record (KPKB)
Temperature  
Mean Temperature 30 °F 32 °F  
Max Temperature 34 °F 40 °F 76 °F (1952)
Min Temperature 25 °F 24 °F -3 °F (1968)
Degree Days  
Heating Degree Days 35 33  
Month to date heating degree days 33  
Since 1 July heating degree days 1943  
Cooling Degree Days 0 0  
Month to date cooling degree days 0  
Year to date cooling degree days 0  
Moisture  
Dew Point 28 °F    
Average Humidity 85    
Maximum Humidity 99    
Minimum Humidity 62    
Precipitation  
Precipitation 0.00 in 0.10 in 0.84 in (2011)
Month to date precipitation 0.10  
Year to date precipitation 0.10  
Sea Level Pressure  
Sea Level Pressure 30.05 in    
Wind  
Wind Speed 4 mph (WNW)    
Max Wind Speed 9 mph    
Max Gust Speed -    
Visibility 7 miles    
Events Rain , Snow    
T = Trace of Precipitation, MM = Missing Value Source: NWS Daily Summary

Daily Weather History Graph

Daily Weather History Graph

Search for Another Location

Airport:

Trip Planner

Search our weather history database for the weather conditions in past years. The results will help you decide how hot, cold, wet, or windy it might be!

Date:

Astronomy

Jan. 01, 2013 Rise Set
Actual Time 7:48 AM EST 5:17 PM EST
Civil Twilight 7:18 AM EST 5:46 PM EST
Nautical Twilight 6:45 AM EST 6:20 PM EST
Astronomical Twilight 6:12 AM EST 6:53 PM EST
Moon 9:44 PM EST (1/1) 10:01 AM EST (1/1)
Length of Visible Light 10h 28m
Length of Day
9h 28m
Waning Gibbous, 83% of the Moon is Illuminated
Jan 1
Waning Gibbous
Jan 4
Last Quarter
Jan 11
New
Jan 18
First Quarter
Jan 26
Full

Hourly Weather History & Observations

Time (EST) Temp. Windchill Dew Point Humidity Pressure Visibility Wind Dir Wind Speed Gust Speed Precip Events Conditions
12:15 AM 33.8 °F 28.6 °F 27.1 °F 77% 30.06 in 10.0 mi SSW 5.8 mph - N/A   Overcast
12:35 AM 33.8 °F - 27.0 °F 76% 30.06 in 10.0 mi Calm Calm - N/A   Overcast
12:55 AM 33.8 °F 29.6 °F 27.3 °F 77% 30.06 in 10.0 mi SSW 4.6 mph - N/A   Overcast
1:15 AM 33.6 °F 29.4 °F 27.5 °F 78% 30.07 in 10.0 mi SW 4.6 mph - N/A   Overcast
1:35 AM 33.4 °F 28.1 °F 28.2 °F 81% 30.06 in 5.0 mi SW 5.8 mph - N/A Snow Light Snow
1:55 AM 33.1 °F 27.7 °F 29.3 °F 86% 30.07 in 3.0 mi SW 5.8 mph - N/A Snow Light Snow
2:15 AM 32.2 °F 27.7 °F 30.0 °F 92% 30.04 in 3.0 mi South 4.6 mph - N/A Snow Light Snow
2:35 AM 32.0 °F 28.7 °F 30.2 °F 93% 30.04 in 2.0 mi South 3.5 mph - N/A Snow Light Snow
2:55 AM 32.0 °F 27.5 °F 30.2 °F 93% 30.06 in 2.5 mi SSW 4.6 mph - N/A Rain Light Rain
3:15 AM 32.0 °F - 30.7 °F 95% 30.05 in 1.2 mi Calm Calm - N/A Rain Rain
3:35 AM 32.0 °F - 30.7 °F 95% 30.05 in 1.2 mi Calm Calm - N/A Rain Light Rain
3:55 AM 32.0 °F - 30.9 °F 96% 30.04 in 1.8 mi Calm Calm - N/A Rain Light Rain
4:15 AM 32.0 °F - 31.1 °F 96% 30.03 in 2.5 mi Calm Calm - N/A Rain Rain
4:35 AM 32.0 °F - 31.1 °F 96% 30.03 in 1.8 mi Calm Calm - N/A Rain Light Rain
4:55 AM 32.0 °F - 31.1 °F 96% 30.02 in 2.0 mi Calm Calm - N/A   Drizzle
5:15 AM 32.0 °F - 31.1 °F 96% 30.03 in 2.5 mi Calm Calm - N/A Rain Light Rain
5:35 AM 32.0 °F - 31.1 °F 96% 30.03 in 3.0 mi Calm Calm - N/A Snow Light Snow
5:55 AM 32.0 °F - 31.1 °F 96% 30.04 in 1.2 mi Calm Calm - N/A Snow Light Snow
6:15 AM 32.0 °F - 31.1 °F 96% 30.03 in 1.2 mi Calm Calm - N/A Snow Light Snow
6:35 AM 32.0 °F 28.7 °F 31.5 °F 98% 30.04 in 1.5 mi SW 3.5 mph - N/A Rain Light Rain
6:55 AM 32.0 °F 28.7 °F 31.6 °F 99% 30.04 in 1.8 mi SW 3.5 mph - N/A Rain Light Rain
7:15 AM 32.2 °F 28.9 °F 31.6 °F 98% 30.04 in 2.0 mi SW 3.5 mph - N/A Snow Light Snow
7:35 AM 32.2 °F 28.9 °F 31.6 °F 98% 30.04 in 2.0 mi WSW 3.5 mph - N/A Snow Light Snow
7:55 AM 32.0 °F 28.7 °F 31.6 °F 99% 30.04 in 1.8 mi WSW 3.5 mph - N/A Snow Light Snow
8:15 AM 32.2 °F 27.7 °F 31.8 °F 99% 30.06 in 3.0 mi WSW 4.6 mph - N/A Snow Light Snow
8:35 AM 32.2 °F 28.9 °F 32.0 °F 99% 30.05 in 5.0 mi SW 3.5 mph - N/A Rain Light Rain
8:55 AM 32.2 °F 28.9 °F 31.6 °F 98% 30.06 in 4.0 mi WSW 3.5 mph - N/A   Overcast
9:15 AM 32.4 °F 29.1 °F 32.0 °F 99% 30.05 in 7.0 mi SW 3.5 mph - N/A   Overcast
9:35 AM 32.5 °F 28.1 °F 31.8 °F 97% 30.05 in 10.0 mi WSW 4.6 mph - N/A   Overcast
9:55 AM 32.5 °F 29.3 °F 31.8 °F 97% 30.06 in 7.0 mi WSW 3.5 mph - N/A   Overcast
10:15 AM 33.1 °F 30.0 °F 32.0 °F 96% 30.05 in 10.0 mi West 3.5 mph - N/A   Overcast
10:35 AM 33.4 °F 29.1 °F 31.8 °F 94% 30.06 in 10.0 mi West 4.6 mph - N/A   Overcast
10:55 AM 33.8 °F - 31.5 °F 91% 30.06 in 10.0 mi Calm Calm - N/A   Overcast
11:15 AM 33.8 °F 29.6 °F 31.1 °F 90% 30.06 in 10.0 mi NW 4.6 mph - N/A   Overcast
11:35 AM 33.8 °F 29.6 °F 31.1 °F 90% 30.06 in 10.0 mi WNW 4.6 mph - N/A   Overcast
11:55 AM 33.8 °F 30.8 °F 30.9 °F 89% 30.04 in 10.0 mi WNW 3.5 mph - N/A   Overcast
12:15 PM 33.8 °F - 31.1 °F 90% 30.04 in 10.0 mi Calm Calm - N/A   Overcast
12:35 PM 33.8 °F 30.8 °F 30.7 °F 89% 30.03 in 10.0 mi NW 3.5 mph - N/A   Overcast
12:55 PM 33.8 °F 29.6 °F 31.1 °F 90% 30.04 in 10.0 mi WNW 4.6 mph - N/A   Overcast
1:15 PM 34.0 °F 28.8 °F 30.7 °F 88% 30.02 in 10.0 mi WNW 5.8 mph - N/A   Overcast
1:35 PM 34.0 °F 28.8 °F 30.6 °F 87% 30.01 in 10.0 mi NW 5.8 mph - N/A   Overcast
1:55 PM 34.0 °F 29.8 °F 30.4 °F 87% 30.01 in 10.0 mi WNW 4.6 mph - N/A   Overcast
2:15 PM 34.0 °F 29.8 °F 30.2 °F 86% 30.00 in 10.0 mi NW 4.6 mph - N/A   Overcast
2:35 PM 34.0 °F 28.8 °F 29.8 °F 85% 30.02 in 10.0 mi WNW 5.8 mph - N/A   Overcast
2:55 PM 33.1 °F 28.7 °F 29.3 °F 86% 30.02 in 10.0 mi NNW 4.6 mph - N/A   Overcast
3:15 PM 33.1 °F 27.7 °F 29.1 °F 85% 30.04 in 10.0 mi NW 5.8 mph - N/A   Overcast
3:35 PM 32.5 °F 26.2 °F 28.9 °F 87% 30.03 in 7.0 mi NNW 6.9 mph - N/A   Overcast
3:55 PM 32.2 °F 26.7 °F 28.4 °F 86% 30.03 in 5.0 mi North 5.8 mph - N/A   Overcast
4:15 PM 32.0 °F 27.5 °F 28.2 °F 86% 30.04 in 7.0 mi NW 4.6 mph - N/A   Overcast
4:35 PM 32.0 °F 26.4 °F 27.3 °F 83% 30.06 in 7.0 mi NW 5.8 mph - N/A   Overcast
4:55 PM 32.0 °F - 27.1 °F 82% 30.05 in 7.0 mi Calm Calm - N/A   Mostly Cloudy
5:15 PM 32.0 °F 28.7 °F 27.3 °F 83% 30.05 in 7.0 mi NNW 3.5 mph - N/A   Scattered Clouds
5:35 PM 32.0 °F 27.5 °F 25.5 °F 77% 30.04 in 10.0 mi WNW 4.6 mph - N/A   Scattered Clouds
5:55 PM 31.6 °F 27.0 °F 25.7 °F 79% 30.04 in 10.0 mi West 4.6 mph - N/A   Scattered Clouds
6:15 PM 31.1 °F 26.4 °F 25.0 °F 78% 30.06 in 10.0 mi WNW 4.6 mph - N/A   Scattered Clouds
6:35 PM 31.1 °F 27.7 °F 24.6 °F 77% 30.07 in 10.0 mi WNW 3.5 mph - N/A   Mostly Cloudy
6:55 PM 30.7 °F 27.3 °F 24.6 °F 78% 30.07 in 10.0 mi NNW 3.5 mph - N/A   Overcast
7:15 PM 30.2 °F 24.3 °F 23.5 °F 76% 30.08 in 10.0 mi NNW 5.8 mph - N/A   Overcast
7:35 PM 30.0 °F 26.5 °F 23.4 °F 76% 30.08 in 10.0 mi North 3.5 mph - N/A   Overcast
7:55 PM 30.0 °F 25.2 °F 23.5 °F 77% 30.09 in 10.0 mi North 4.6 mph - N/A   Overcast
8:15 PM 29.1 °F 23.0 °F 21.6 °F 73% 30.08 in 10.0 mi North 5.8 mph - N/A   Overcast
8:35 PM 28.8 °F 22.6 °F 21.2 °F 73% 30.07 in 10.0 mi North 5.8 mph - N/A   Overcast
8:55 PM 28.4 °F 21.2 °F 20.3 °F 72% 30.08 in 10.0 mi North 6.9 mph - N/A   Overcast
9:15 PM 27.9 °F 21.5 °F 20.1 °F 73% 30.08 in 10.0 mi North 5.8 mph - N/A   Overcast
9:35 PM 27.5 °F 22.2 °F 19.6 °F 72% 30.08 in 10.0 mi North 4.6 mph - N/A   Overcast
9:55 PM 27.5 °F 20.2 °F 18.1 °F 68% 30.09 in 10.0 mi North 6.9 mph - N/A   Overcast
10:15 PM 27.1 °F 20.7 °F 16.5 °F 64% 30.10 in 10.0 mi North 5.8 mph - N/A   Overcast
10:35 PM 27.0 °F 18.0 °F 15.6 °F 62% 30.11 in 10.0 mi NNW 9.2 mph - N/A   Overcast
10:55 PM 26.6 °F 20.0 °F 16.0 °F 64% 30.11 in 10.0 mi NNW 5.8 mph - N/A   Overcast
11:15 PM 26.4 °F 19.8 °F 16.2 °F 65% 30.10 in 10.0 mi NNW 5.8 mph - N/A   Overcast
11:35 PM 26.1 °F 18.4 °F 15.6 °F 65% 30.11 in 10.0 mi NNW 6.9 mph - N/A   Overcast
11:55 PM 25.5 °F 17.8 °F 14.0 °F 62% 30.12 in 10.0 mi North 6.9 mph - N/A   Overcast